Content
SEND FEEDBACK

Daily
Averages
Monthly
Summary
Canada

QUEBEC CITY, QUEBEC


Home > North America > Canada > Quebec
Elevation: 239 feet     Latitude: 46 48N     Longitude: 071 23W

WEATHER
 
SELECT A DAY
Number of Records: 192,552;   Date Range: 6/30/96 - 8/27/14
 
SHARE

PRINT THIS DATA

[ ← Previous Day ]
WEATHER ALMANAC - AUGUST 28, 2013
[ Next Day → ]
[ °C ]   °F
Weather ElementAverageHighLow
Temperature67.6 °F75.2 °F (12:00 pm)60.8 °F (11:00 pm)
Dewpoint57.3 °F66.2 °F (11:00 am) (7:00 pm)
Humidity79.1 %94 % (5:00 am)59 % (2:00 pm)
Barometer28.08 in30.09 in (11:00 pm) (7:00 pm)
Wind Speed8.6 mph19.6 mph (6:37 pm)
Wind Gust29.9 mph (6:37 pm)
Weather ElementAverage
Visibility15 mi
Wind DirectionE (87.5 °)

Weather ElementTotal
Precipitation---
Cooling Degree Days3 (Base 65)
Growing Degree Days18 (Base 50)
Averaged from 32 records on August 28, 2013
WEATHER CONDITIONS BREAKOUT
WIND DIRECTION BREAKOUT
WEATHER BY HOUR - AUGUST 28, 2013
[ °C ]   °F
Local TimeTemperatureDewpointHumidityBarometerVisibilityWind DirectionWind SpeedGust SpeedPrecipitationEventsConditions
1:00 AM68.0 °F62.6 °F83 %29.90 in10.0 miNNE (30°)4.6 mphMostly Cloudy
2:00 AM65.0 °F62.0 °F87 %29.87 inNNW (330°)1.2 mph
2:00 AM68.0 °F60.8 °F78 %29.89 in8.0 miNNE (20°)3.5 mphOvercast
3:00 AM64.4 °F60.8 °F88 %29.89 in8.0 miNNW (330°)5.8 mphOvercast
4:00 AM66.2 °F62.6 °F88 %29.88 in10.0 miENE (70°)2.3 mphOvercast
5:00 AM64.0 °F63.0 °F94 %29.86 inWNW (300°)2.3 mph
5:00 AM64.4 °F62.6 °F94 %29.88 in10.0 miNorth (10°)3.5 mphOvercast
6:00 AM64.4 °F62.6 °F94 %29.89 in10.0 miNNE (20°)4.6 mphOvercast
7:00 AM66.2 °F62.6 °F88 %29.91 in10.0 miNNE (30°)2.3 mphOvercast
8:00 AM68.0 °F63.0 °F79 %29.89 inEast (100°)1.2 mph
8:00 AM68.0 °F62.6 °F83 %29.91 in10.0 miENE (70°)4.6 mphOvercast
9:00 AM68.0 °F62.6 °F83 %29.92 in10.0 miNNE (30°)4.6 mphOvercast
10:00 AM69.8 °F62.6 °F78 %29.93 in8.0 miNNE (30°)5.8 mphOvercast
11:00 AM72.0 °F65.0 °F72 %29.91 inSE (140°)3.5 mph
11:00 AM73.4 °F66.2 °F78 %29.94 in8.0 miEast (90°)4.6 mphMostly Cloudy
12:00 PM75.2 °F66.2 °F73 %29.94 in8.0 miEast (90°)5.8 mphOvercast
1:00 PM73.4 °F62.6 °F69 %29.95 in10.0 miENE (60°)15.0 mphMostly Cloudy
2:00 PM72.0 °F61.0 °F59 %29.94 inEast (90°)12.7 mph
2:00 PM71.6 °F60.8 °F69 %29.96 in15.0 miENE (70°)16.1 mphMostly Cloudy
2:13 PM71.6 °F0.0 °F15.0 miENE (70°)12.7 mphRainLight Rain Showers
3:00 PM69.8 °F62.6 °F78 %29.96 in15.0 miENE (60°)9.2 mphRainLight Rain Showers
4:00 PM69.8 °F59.0 °F68 %29.97 in30.0 miENE (70°)15.0 mph24.2 mphMostly Cloudy
5:00 PM69.0 °F60.0 °F66 %29.96 inEast (80°)10.4 mph
5:00 PM68.0 °F59.0 °F73 %29.99 in30.0 miENE (70°)17.3 mph27.6 mphMostly Cloudy
6:00 PM68.0 °F59.0 °F73 %29.99 in30.0 miENE (60°)18.4 mph28.8 mphRainLight Rain Showers
6:37 PM66.2 °F0.0 °F30.0 miENE (60°)19.6 mph29.9 mphMostly Cloudy
7:00 PM66.2 °F57.2 °F73 %30.02 in30.0 miENE (70°)15.0 mph27.6 mphMostly Cloudy
8:00 PM66.2 °F57.2 °F73 %30.04 in15.0 miENE (70°)11.5 mph20.7 mphMostly Cloudy
9:00 PM62.6 °F57.2 °F82 %30.06 in15.0 miENE (70°)12.7 mph19.6 mphScattered Clouds
10:00 PM62.6 °F57.2 °F82 %30.08 in15.0 miENE (60°)15.0 mphMostly Cloudy
11:00 PM61.0 °F57.0 °F81 %30.06 inEast (80°)8.1 mph
11:00 PM60.8 °F57.2 °F88 %30.09 in15.0 miENE (70°)6.9 mphMostly Cloudy
Hourly data recorded from CYQB, located miles away from Quebec City, Quebec







STORIES FROM OUR PARTNERS